Weather History for Page, AZ

Change the Weather History Date:

Monday, November 5, 2012

  Actual Average Record
Temperature  
Mean Temperature 58 °F -  
Max Temperature 70 °F 60 °F 70 °F (1958)
Min Temperature 45 °F 39 °F 30 °F (1991)
Degree Days  
Heating Degree Days 8    
Growing Degree Days 8 (Base 50)    
Moisture  
Dew Point 25 °F    
Average Humidity 29    
Maximum Humidity 44    
Minimum Humidity 11    
Precipitation  
Precipitation 0.00 in - - ()
Sea Level Pressure  
Sea Level Pressure 30.22 in    
Wind  
Wind Speed 2 mph (West)    
Max Wind Speed 5 mph    
Max Gust Speed -    
Visibility 10 miles    
Events      
Averages and records for this station are not official NWS values.
T = Trace of Precipitation, MM = Missing Value Source: NWS Daily Summary

Daily Weather History Graph

Daily Weather History Graph

Search for Another Location

Airport:

Trip Planner

Search our weather history database for the weather conditions in past years. The results will help you decide how hot, cold, wet, or windy it might be!

Date:

Astronomy

Nov. 05, 2012 Rise Set
Actual Time 6:54 AM MST 5:23 PM MST
Civil Twilight 6:27 AM MST 5:51 PM MST
Nautical Twilight 5:56 AM MST 6:21 PM MST
Astronomical Twilight 5:26 AM MST 6:52 PM MST
Moon 11:04 PM MST (11/5) 12:15 PM MST (11/5)
Length of Visible Light 11h 23m
Length of Day
10h 29m
Waning Gibbous, 62% of the Moon is Illuminated
Nov 5
Waning Gibbous
Nov 6
Last Quarter
Nov 13
New
Nov 20
First Quarter
Nov 28
Full

Hourly Weather History & Observations

Time (MST) Temp. Dew Point Humidity Pressure Visibility Wind Dir Wind Speed Gust Speed Precip Events Conditions
12:53 AM 51.1 °F 21.9 °F 32% 30.24 in 10.0 mi South 3.5 mph - N/A   Clear
1:53 AM 51.1 °F 21.0 °F 31% 30.24 in 10.0 mi WSW 3.5 mph - N/A   Clear
2:53 AM 50.0 °F 19.9 °F 31% 30.24 in 10.0 mi Calm Calm - N/A   Clear
3:53 AM 48.9 °F 23.0 °F 36% 30.22 in 10.0 mi West 3.5 mph - N/A   Clear
4:53 AM 46.9 °F 24.1 °F 41% 30.23 in 10.0 mi Calm Calm - N/A   Clear
5:53 AM 45.0 °F 24.1 °F 44% 30.26 in 9.0 mi Calm Calm - N/A   Clear
6:53 AM 46.9 °F 21.9 °F 37% 30.28 in 10.0 mi WSW 3.5 mph - N/A   Clear
7:53 AM 51.1 °F 21.9 °F 32% 30.30 in 10.0 mi Calm Calm - N/A   Clear
8:53 AM 54.0 °F 23.0 °F 30% 30.31 in 10.0 mi Calm Calm - N/A   Clear
9:53 AM 59.0 °F 25.0 °F 27% 30.30 in 10.0 mi Calm Calm - N/A   Clear
10:53 AM 60.1 °F 25.0 °F 26% 30.28 in 10.0 mi North 3.5 mph - N/A   Clear
11:53 AM 63.0 °F 25.0 °F 24% 30.25 in 10.0 mi Calm Calm - N/A   Clear
12:53 PM 64.9 °F 25.0 °F 22% 30.20 in 10.0 mi Variable 3.5 mph - N/A   Clear
1:53 PM 68.0 °F 26.1 °F 21% 30.17 in 10.0 mi NE 3.5 mph - N/A   Clear
2:53 PM 68.0 °F 25.0 °F 20% 30.17 in 10.0 mi ENE 3.5 mph - N/A   Clear
3:53 PM 69.1 °F 24.1 °F 18% 30.15 in 10.0 mi Calm Calm - N/A   Clear
4:53 PM 66.9 °F 25.0 °F 21% 30.14 in 10.0 mi NNE 3.5 mph - N/A   Clear
5:53 PM 64.0 °F 27.0 °F 25% 30.15 in 10.0 mi Calm Calm - N/A   Clear
6:53 PM 57.9 °F 28.9 °F 33% 30.18 in 10.0 mi Calm Calm - N/A   Clear
7:53 PM 55.9 °F 28.9 °F 36% 30.18 in 10.0 mi Calm Calm - N/A   Clear
8:53 PM 57.0 °F 27.0 °F 32% 30.18 in 10.0 mi SSW 4.6 mph - N/A   Clear
9:53 PM 53.1 °F 27.0 °F 37% 30.19 in 10.0 mi Calm Calm - N/A   Clear
10:53 PM 52.0 °F 28.0 °F 40% 30.19 in 10.0 mi Calm Calm - N/A   Clear
11:53 PM 51.1 °F 28.0 °F 41% 30.19 in 7.0 mi Calm Calm - N/A   Clear